DW6455 Orivesi FI current weather conditions

sailwx.info

Wind from 355 at 2 knots gusting 5

Air temperature 10.6° C
Dewpoint 9.9° C

Last reported at 2015-Sep-01 19:52 UTC.
Time now 2015-Sep-01 20:20 UTC

Location: N 61°39' E 024°21'.
View on Google Maps.

See reports from other nearby stations

  
Tides and Currents Weather Stations Pressure Air Temp Water Temp Dewpoint Dewpoint Depression Visibility Wind Speed Wind Dir Waves Ship Positions
date/time (UTC)wind fromknots sea level pressurealtimeterstation pressurevisibilityair tempwater tempwave heightnotes
2015-Sep-01 19:52 355 2 gusting 5 10.6
2015-Sep-01 19:47 355 2 gusting 5 10.6
2015-Sep-01 19:42 355 2 gusting 4 10.6
2015-Sep-01 19:37 028 2 gusting 3 10.6
2015-Sep-01 19:32 028 1 gusting 2 10.6
2015-Sep-01 19:27 028 1 gusting 2 11.1
2015-Sep-01 19:22 028 0 gusting 2 11.1
2015-Sep-01 19:17 028 0 gusting 1 11.1
2015-Sep-01 19:12 028 0 gusting 1 11.1
2015-Sep-01 19:07 028 0 gusting 2 11.7
2015-Sep-01 19:02 028 0 gusting 2 11.7
2015-Sep-01 18:57 028 1 gusting 2 11.7
2015-Sep-01 18:52 028 0 gusting 1 11.7
2015-Sep-01 18:47 028 12.2
2015-Sep-01 18:42 028 12.2
2015-Sep-01 18:37 028 12.2
2015-Sep-01 18:32 028 12.8
2015-Sep-01 18:27 028 12.8
2015-Sep-01 18:22 028 12.8
2015-Sep-01 18:17 028 13.3
2015-Sep-01 18:12 028 0 gusting 3 13.3
2015-Sep-01 18:07 028 0 gusting 3 13.3
2015-Sep-01 18:02 028 0 gusting 2 13.3
2015-Sep-01 17:57 028 0 gusting 2 13.3
2015-Sep-01 17:52 13.9
2015-Sep-01 17:47 13.9
2015-Sep-01 17:42 13.9
2015-Sep-01 17:37 13.9
2015-Sep-01 17:32 13.9
2015-Sep-01 17:27 13.9
2015-Sep-01 17:22 13.9
2015-Sep-01 17:17 13.9
2015-Sep-01 17:12 13.9
2015-Sep-01 17:07 14.4
2015-Sep-01 17:02 14.4
2015-Sep-01 16:57 14.4
2015-Sep-01 16:52 14.4
2015-Sep-01 16:47 14.4
2015-Sep-01 16:42 14.4
2015-Sep-01 16:37 14.4
2015-Sep-01 16:32 14.4
2015-Sep-01 16:27 15.0
2015-Sep-01 16:22 15.0
2015-Sep-01 16:17 15.6
2015-Sep-01 16:12 15.6
2015-Sep-01 16:07 065 0 gusting 2 16.1
2015-Sep-01 16:02 065 0 gusting 6 16.7
2015-Sep-01 15:57 065 1 gusting 6 16.7
2015-Sep-01 15:52 065 1 gusting 6 16.7
2015-Sep-01 15:47 098 1 gusting 5 17.2
2015-Sep-01 15:42 060 1 gusting 3 17.2
2015-Sep-01 15:37 115 0 gusting 3 17.8
2015-Sep-01 15:32 074 0 gusting 6 17.8
2015-Sep-01 15:27 074 0 gusting 6 18.3
2015-Sep-01 15:22 092 1 gusting 6 18.3
2015-Sep-01 15:17 117 2 gusting 8 18.3
2015-Sep-01 15:12 142 2 gusting 8 18.3
2015-Sep-01 15:07 068 4 gusting 9 18.3
2015-Sep-01 15:02 159 4 gusting 9 18.3
2015-Sep-01 14:57 164 4 gusting 9 18.9
2015-Sep-01 14:52 154 2 gusting 8 18.9
2015-Sep-01 14:47 154 0 gusting 3 18.9
2015-Sep-01 14:42 150 0 gusting 4 18.9
2015-Sep-01 14:37 142 1 gusting 4 18.9
2015-Sep-01 14:32 142 1 gusting 3 18.9
2015-Sep-01 14:27 165 1 gusting 3 18.3
2015-Sep-01 14:22 166 0 gusting 3 18.3
2015-Sep-01 14:17 217 0 gusting 3 18.3
2015-Sep-01 14:12 221 0 gusting 2 17.8
2015-Sep-01 14:07 221 0 gusting 2 17.8
2015-Sep-01 14:02 222 0 gusting 2 17.2
2015-Sep-01 13:57 221 0 gusting 2 17.2
2015-Sep-01 13:52 221 0 gusting 2 17.2
2015-Sep-01 13:47 219 0 gusting 1 17.2
2015-Sep-01 13:42 339 17.2
2015-Sep-01 13:37 339 17.2
2015-Sep-01 13:32 339 0 gusting 3 17.2
2015-Sep-01 13:27 339 0 gusting 3 17.2
2015-Sep-01 13:22 306 0 gusting 3 17.8
2015-Sep-01 13:17 323 17.8
2015-Sep-01 13:12 321 17.8
2015-Sep-01 13:07 321 0 gusting 5 17.8
2015-Sep-01 13:02 212 0 gusting 2 17.8
2015-Sep-01 12:57 212 0 gusting 2 17.8
2015-Sep-01 12:52 172 17.8
2015-Sep-01 12:47 172 17.8
2015-Sep-01 12:42 172 17.8
2015-Sep-01 12:37 172 17.8
2015-Sep-01 12:32 171 17.8
2015-Sep-01 12:27 171 17.8
2015-Sep-01 12:22 171 17.8
2015-Sep-01 12:17 172 17.8
2015-Sep-01 12:12 171 18.3
2015-Sep-01 12:07 172 18.3
2015-Sep-01 12:02 172 18.3
2015-Sep-01 11:57 172 18.3
2015-Sep-01 11:52 172 18.3
2015-Sep-01 11:47 172 0 gusting 2 18.9
2015-Sep-01 11:42 171 0 gusting 2 18.9
2015-Sep-01 11:37 197 18.3
2015-Sep-01 11:32 197 18.3
2015-Sep-01 11:27 197 18.3
2015-Sep-01 11:22 197 18.3
2015-Sep-01 11:17 198 18.9
2015-Sep-01 11:12 197 18.9
2015-Sep-01 11:07 198 18.9
2015-Sep-01 11:02 198 0 gusting 3 18.9
2015-Sep-01 10:57 198 0 gusting 3 18.9
2015-Sep-01 10:52 198 0 gusting 4 19.4
2015-Sep-01 10:47 196 1 gusting 4 19.4
2015-Sep-01 10:42 197 1 gusting 4 19.4
2015-Sep-01 10:37 221 1 gusting 4 19.4
2015-Sep-01 10:32 219 1 gusting 3 19.4
2015-Sep-01 10:27 210 1 gusting 3 18.9
2015-Sep-01 10:22 214 1 gusting 5 18.9
2015-Sep-01 10:17 217 1 gusting 5 18.9
2015-Sep-01 10:12 217 1 gusting 5 18.9
2015-Sep-01 10:07 181 2 gusting 5 18.9
2015-Sep-01 10:02 152 1 gusting 6 18.9
2015-Sep-01 09:57 184 1 gusting 6 18.9
2015-Sep-01 09:52 219 2 gusting 4 18.3
2015-Sep-01 09:47 208 1 gusting 4 18.3
2015-Sep-01 09:42 208 1 gusting 4 18.3
2015-Sep-01 09:37 208 2 gusting 4 18.3
2015-Sep-01 09:32 200 2 gusting 4 18.3
2015-Sep-01 09:27 219 1 gusting 4 18.3
2015-Sep-01 09:22 196 1 gusting 4 17.8
2015-Sep-01 09:17 202 1 gusting 4 17.8
2015-Sep-01 09:12 192 1 gusting 2 17.8
2015-Sep-01 09:07 198 0 gusting 2 17.8
2015-Sep-01 09:02 178 0 gusting 3 17.2
2015-Sep-01 08:57 219 0 gusting 3 17.2
2015-Sep-01 08:52 219 0 gusting 3 17.2
2015-Sep-01 08:47 187 0 gusting 3 17.2
2015-Sep-01 08:42 151 0 gusting 4 16.7
2015-Sep-01 08:37 133 0 gusting 4 16.7
2015-Sep-01 08:32 133 0 gusting 1 16.7
2015-Sep-01 08:27 088 0 gusting 1 16.1
2015-Sep-01 08:22 233 15.6
2015-Sep-01 08:17 012 15.6
2015-Sep-01 08:12 012 15.6
2015-Sep-01 08:07 012 15.0
2015-Sep-01 08:02 012 15.0
2015-Sep-01 07:57 012 15.0
2015-Sep-01 07:52 012 14.4
2015-Sep-01 07:47 012 14.4
2015-Sep-01 07:42 012 14.4
2015-Sep-01 07:37 012 13.9
2015-Sep-01 07:32 012 13.9
2015-Sep-01 07:27 012 0 gusting 1 13.3
2015-Sep-01 07:22 012 13.3
2015-Sep-01 07:17 311 13.3
2015-Sep-01 07:12 311 12.8
2015-Sep-01 07:07 311 12.8
2015-Sep-01 07:02 311 12.8
2015-Sep-01 06:57 311 12.8
2015-Sep-01 06:52 311 12.2
2015-Sep-01 06:47 311 12.2
2015-Sep-01 06:42 311 12.2
2015-Sep-01 06:37 311 11.7
2015-Sep-01 06:32 311 11.7
2015-Sep-01 06:27 311 11.7
2015-Sep-01 06:22 311 11.7
2015-Sep-01 06:17 311 11.7
2015-Sep-01 06:12 311 11.1
2015-Sep-01 06:07 311 11.1
2015-Sep-01 06:02 311 11.1
2015-Sep-01 05:57 311 10.6
2015-Sep-01 05:52 311 10.6
2015-Sep-01 05:47 311 10.6
2015-Sep-01 05:42 311 10.0
2015-Sep-01 05:37 311 10.0
2015-Sep-01 05:32 311 10.0
2015-Sep-01 05:27 311 10.0
2015-Sep-01 05:22 311 9.4
2015-Sep-01 05:17 311 9.4
2015-Sep-01 05:12 311 9.4
2015-Sep-01 05:07 311 8.9
2015-Sep-01 05:02 311 8.9
2015-Sep-01 04:57 311 8.9
2015-Sep-01 04:52 311 8.3
2015-Sep-01 04:47 311 8.3
2015-Sep-01 04:42 311 7.8
2015-Sep-01 04:37 311 7.8
2015-Sep-01 04:32 311 7.8
2015-Sep-01 04:27 311 7.8
2015-Sep-01 04:22 311 7.8
2015-Sep-01 04:17 311 0 gusting 1 7.2
2015-Sep-01 04:12 311 0 gusting 2 7.2
2015-Sep-01 04:07 311 1 gusting 2 6.7
2015-Sep-01 04:02 311 1 gusting 1 6.7
2015-Sep-01 03:57 311 0 gusting 1 6.7
2015-Sep-01 03:52 311 0 gusting 2 6.7
2015-Sep-01 03:47 311 0 gusting 2 6.7
2015-Sep-01 03:42 311 0 gusting 2 6.7
2015-Sep-01 03:37 311 0 gusting 2 6.1
2015-Sep-01 03:32 311 6.1
2015-Sep-01 03:27 311 6.1
2015-Sep-01 03:22 311 6.1
2015-Sep-01 03:17 311 6.1
2015-Sep-01 03:12 311 6.1
2015-Sep-01 03:07 311 6.1
2015-Sep-01 03:02 311 6.1
2015-Sep-01 02:57 311 6.1
2015-Sep-01 02:52 311 6.1
2015-Sep-01 02:47 311 6.1
2015-Sep-01 02:42 311 6.1
2015-Sep-01 02:37 311 6.1
2015-Sep-01 02:32 311 6.1
2015-Sep-01 02:27 311 6.1
2015-Sep-01 02:22 311 6.1
2015-Sep-01 02:17 311 6.1
2015-Sep-01 02:12 311 6.1
2015-Sep-01 02:07 311 6.1
2015-Sep-01 02:02 311 6.1
2015-Sep-01 01:57 311 6.7
2015-Sep-01 01:52 311 6.7
2015-Sep-01 01:47 311 6.7
2015-Sep-01 01:42 311 6.7
2015-Sep-01 01:37 311 6.1
2015-Sep-01 01:32 311 6.1
2015-Sep-01 01:27 311 6.1
2015-Sep-01 01:22 311 6.1
2015-Sep-01 01:17 311 6.1
2015-Sep-01 01:12 311 6.7
2015-Sep-01 01:07 311 6.7
2015-Sep-01 01:02 311 6.7
2015-Sep-01 00:57 311 6.7
2015-Sep-01 00:52 311 6.7
2015-Sep-01 00:47 311 6.7
2015-Sep-01 00:42 311 6.7
2015-Sep-01 00:37 311 6.7
2015-Sep-01 00:32 311 6.7
2015-Sep-01 00:27 311 6.7
2015-Sep-01 00:22 311 7.2
2015-Sep-01 00:17 311 7.2
2015-Sep-01 00:12 311 7.2
2015-Sep-01 00:07 311 7.2
2015-Sep-01 00:02 311 7.8
2015-Aug-31 23:57 311 7.2
2015-Aug-31 23:52 311 7.2
2015-Aug-31 23:47 311 7.8
2015-Aug-31 23:42 311 7.2
2015-Aug-31 23:37 311 7.8
2015-Aug-31 23:32 311 7.8
2015-Aug-31 23:27 311 7.8
2015-Aug-31 23:22 311 7.8
2015-Aug-31 23:17 311 7.8
2015-Aug-31 23:12 311 7.8
2015-Aug-31 23:07 311 7.8
2015-Aug-31 23:02 311 7.8
2015-Aug-31 22:57 311 0 gusting 2 7.8
2015-Aug-31 22:52 311 0 gusting 2 7.8
2015-Aug-31 22:47 311 8.3
2015-Aug-31 22:42 311 8.3
2015-Aug-31 22:37 311 8.3
2015-Aug-31 22:32 311 8.3
2015-Aug-31 22:27 311 8.3
2015-Aug-31 22:22 311 8.3
2015-Aug-31 22:17 311 8.3
2015-Aug-31 22:12 311 8.3
2015-Aug-31 22:07 311 8.3
2015-Aug-31 22:02 311 8.3
2015-Aug-31 21:57 311 0 gusting 1 8.3
2015-Aug-31 21:52 311 0 gusting 2 8.3
2015-Aug-31 21:47 311 0 gusting 2 8.3
2015-Aug-31 21:42 311 1 gusting 2 8.3
2015-Aug-31 21:37 311 0 gusting 1 8.9
2015-Aug-31 21:32 311 8.9
2015-Aug-31 21:27 311 8.9
2015-Aug-31 21:22 311 0 gusting 2 8.9
2015-Aug-31 21:17 311 0 gusting 2 8.9
2015-Aug-31 21:12 311 0 gusting 2 8.9
2015-Aug-31 21:07 311 0 gusting 1 8.9
2015-Aug-31 21:02 311 0 gusting 1 8.9
2015-Aug-31 20:57 311 8.9
2015-Aug-31 20:52 311 0 gusting 2 8.9
2015-Aug-31 20:47 311 0 gusting 2 9.4
2015-Aug-31 20:42 311 1 gusting 2 9.4
2015-Aug-31 20:37 311 1 gusting 2 9.4
2015-Aug-31 20:32 311 0 gusting 0 9.4
2015-Aug-31 20:27 311 9.4
2015-Aug-31 20:22 311 9.4
2015-Aug-31 20:17 311 10.0
2015-Aug-31 20:12 311 0 gusting 2 10.0
2015-Aug-31 20:07 311 0 gusting 2 10.0
2015-Aug-31 20:02 311 10.0
2015-Aug-31 19:57 311 10.0
2015-Aug-31 19:52 311 10.0
2015-Aug-31 19:47 311 10.0
2015-Aug-31 19:42 311 10.0
2015-Aug-31 19:37 311 10.0
2015-Aug-31 19:32 311 10.6
2015-Aug-31 19:27 311 10.6
2015-Aug-31 19:22 311 10.6
2015-Aug-31 19:17 311 10.6
2015-Aug-31 19:12 311 0 gusting 1 10.6
2015-Aug-31 19:07 311 11.1
2015-Aug-31 19:02 311 0 gusting 2 11.1
2015-Aug-31 18:57 311 0 gusting 2 11.1
2015-Aug-31 18:52 311 0 gusting 1 11.1
2015-Aug-31 18:47 311 0 gusting 1 11.7
2015-Aug-31 18:42 311 0 gusting 2 11.7
2015-Aug-31 18:37 311 0 gusting 2 11.7
2015-Aug-31 18:32 311 0 gusting 0 11.7
2015-Aug-31 18:27 311 0 gusting 0 11.7
2015-Aug-31 18:22 311 12.2
2015-Aug-31 18:17 311 12.2
2015-Aug-31 18:12 311 12.2
2015-Aug-31 18:07 311 12.8
2015-Aug-31 18:02 311 12.8
2015-Aug-31 17:57 311 12.8
2015-Aug-31 17:52 311 12.8
2015-Aug-31 17:47 311 13.3
2015-Aug-31 17:42 311 13.3
2015-Aug-31 17:37 311 13.9
2015-Aug-31 17:32 311 13.9
2015-Aug-31 17:27 311 14.4
2015-Aug-31 17:22 311 14.4
2015-Aug-31 17:17 311 14.4
2015-Aug-31 17:12 311 15.0
2015-Aug-31 17:07 311 15.6
2015-Aug-31 17:02 311 15.6
2015-Aug-31 16:57 311 15.6
2015-Aug-31 16:52 311 16.1
2015-Aug-31 16:47 311 16.1
2015-Aug-31 16:42 311 16.7
2015-Aug-31 16:37 311 16.7
2015-Aug-31 16:32 311 16.7
2015-Aug-31 16:27 311 16.7
2015-Aug-31 16:22 311 17.2
2015-Aug-31 16:17 311 17.2
2015-Aug-31 16:12 311 17.2
2015-Aug-31 16:07 298 17.2
2015-Aug-31 16:02 313 17.2
2015-Aug-31 15:57 313 17.8
2015-Aug-31 15:52 252 17.8
2015-Aug-31 15:47 253 17.8
2015-Aug-31 15:42 252 17.8
2015-Aug-31 15:37 252 17.8
2015-Aug-31 15:32 253 17.8
2015-Aug-31 15:27 253 18.3
2015-Aug-31 15:22 316 18.3
2015-Aug-31 15:17 317 18.3
2015-Aug-31 15:12 316 18.3
2015-Aug-31 15:07 248 18.3
2015-Aug-31 15:02 278 18.3
2015-Aug-31 14:57 278 18.3
2015-Aug-31 14:52 183 0 gusting 2 18.3
2015-Aug-31 14:47 302 0 gusting 2 18.3
2015-Aug-31 14:42 205 18.3
2015-Aug-31 14:37 232 18.3
2015-Aug-31 14:32 232 0 gusting 5 18.3
2015-Aug-31 14:27 232 0 gusting 5 18.3
2015-Aug-31 14:22 255 0 gusting 5 18.3
2015-Aug-31 14:17 296 0 gusting 5 18.3
2015-Aug-31 14:12 327 0 gusting 3 18.3
2015-Aug-31 14:07 247 0 gusting 3 18.3
2015-Aug-31 14:02 224 0 gusting 3 18.9
2015-Aug-31 13:57 234 0 gusting 3 18.9
2015-Aug-31 13:52 256 18.9
2015-Aug-31 13:47 217 0 gusting 5 18.9
2015-Aug-31 13:42 302 0 gusting 5 18.9
2015-Aug-31 13:37 328 1 gusting 4 18.3
2015-Aug-31 13:32 270 0 gusting 4 18.3
2015-Aug-31 13:27 212 1 gusting 4 18.3
2015-Aug-31 13:22 212 0 gusting 4 18.3
2015-Aug-31 13:17 257 0 gusting 5 18.3
2015-Aug-31 13:12 194 1 gusting 5 18.3
2015-Aug-31 13:07 163 2 gusting 5 18.3
2015-Aug-31 13:02 135 1 gusting 5 18.3
2015-Aug-31 12:57 171 0 gusting 5 18.3
2015-Aug-31 12:52 209 0 gusting 5 18.3
2015-Aug-31 12:47 209 0 gusting 3 18.3
2015-Aug-31 12:42 202 1 gusting 3 18.3
2015-Aug-31 12:37 194 1 gusting 2 18.3
2015-Aug-31 12:32 217 0 gusting 2 18.3
2015-Aug-31 12:27 213 18.3
2015-Aug-31 12:22 213 18.3
2015-Aug-31 12:17 212 18.9
2015-Aug-31 12:12 213 0 gusting 5 18.9
2015-Aug-31 12:07 212 1 gusting 4 18.9
2015-Aug-31 12:02 210 1 gusting 4 18.9
2015-Aug-31 11:57 158 0 gusting 4 18.9
2015-Aug-31 11:52 158 0 gusting 4 18.9
2015-Aug-31 11:47 158 0 gusting 4 18.9
2015-Aug-31 11:42 158 1 gusting 4 18.9
2015-Aug-31 11:37 202 0 gusting 5 18.9
2015-Aug-31 11:32 203 0 gusting 5 18.9
2015-Aug-31 11:27 253 1 gusting 4 18.9
2015-Aug-31 11:22 222 0 gusting 4 18.9
2015-Aug-31 11:17 228 0 gusting 4 18.3
2015-Aug-31 11:12 184 0 gusting 4 17.8
2015-Aug-31 11:07 310 17.8
2015-Aug-31 11:02 310 17.8
2015-Aug-31 10:57 310 18.3
2015-Aug-31 10:52 311 0 gusting 4 18.3
2015-Aug-31 10:47 342 0 gusting 5 18.9
2015-Aug-31 10:42 334 0 gusting 5 18.9
2015-Aug-31 10:37 205 1 gusting 4 18.9
2015-Aug-31 10:32 229 1 gusting 4 18.3
2015-Aug-31 10:27 207 0 gusting 4 18.3
2015-Aug-31 10:22 209 0 gusting 4 18.3
2015-Aug-31 10:17 242 0 gusting 3 17.8
2015-Aug-31 10:12 152 0 gusting 3 17.8
2015-Aug-31 10:07 138 1 gusting 3 17.8
2015-Aug-31 10:02 205 0 gusting 3 17.2
2015-Aug-31 09:57 150 17.2
2015-Aug-31 09:52 234 0 gusting 2 17.2
2015-Aug-31 09:47 234 1 gusting 2 17.2
2015-Aug-31 09:42 230 0 gusting 2 17.2
2015-Aug-31 09:37 222 0 gusting 4 16.7
2015-Aug-31 09:32 324 0 gusting 4 17.2
2015-Aug-31 09:27 306 0 gusting 4 17.2
2015-Aug-31 09:22 306 0 gusting 5 17.2
2015-Aug-31 09:17 355 0 gusting 5 17.2
2015-Aug-31 09:12 316 0 gusting 5 16.7
2015-Aug-31 09:07 215 1 gusting 8 16.7
2015-Aug-31 09:02 302 0 gusting 8 16.7
2015-Aug-31 08:57 207 0 gusting 8 16.7
2015-Aug-31 08:52 220 1 gusting 8 16.7
2015-Aug-31 08:47 277 0 gusting 4 16.7
2015-Aug-31 08:42 209 0 gusting 4 16.1
2015-Aug-31 08:37 191 0 gusting 3 16.1
2015-Aug-31 08:32 248 0 gusting 3 15.6
2015-Aug-31 08:27 205 0 gusting 3 15.6
2015-Aug-31 08:22 221 0 gusting 3 15.6
2015-Aug-31 08:17 254 0 gusting 3 15.0
2015-Aug-31 08:12 232 0 gusting 3 15.0
2015-Aug-31 08:07 232 0 gusting 3 15.0
2015-Aug-31 08:02 215 0 gusting 3 15.0
2015-Aug-31 07:57 215 0 gusting 3 15.0
2015-Aug-31 07:52 215 0 gusting 3 14.4
2015-Aug-31 07:47 215 0 gusting 3 14.4
2015-Aug-31 07:42 215 1 gusting 3 14.4
2015-Aug-31 07:37 196 1 gusting 2 14.4
2015-Aug-31 07:32 231 0 gusting 2 14.4
2015-Aug-31 07:27 234 13.9
2015-Aug-31 07:22 234 0 gusting 2 13.9
2015-Aug-31 07:17 234 0 gusting 1 13.9
2015-Aug-31 07:12 241 13.9
2015-Aug-31 07:07 241 13.9
2015-Aug-31 07:02 240 13.9
2015-Aug-31 06:57 241 13.3
2015-Aug-31 06:52 241 13.3
2015-Aug-31 06:47 241 13.3
2015-Aug-31 06:42 241 13.3
2015-Aug-31 06:37 240 13.3
2015-Aug-31 06:32 241 13.3
2015-Aug-31 06:27 241 13.3
2015-Aug-31 06:22 241 12.8
2015-Aug-31 06:17 240 12.8
2015-Aug-31 06:12 241 12.8
2015-Aug-31 06:07 241 12.8
2015-Aug-31 06:02 232 12.8
2015-Aug-31 05:57 240 0 gusting 3 12.8
2015-Aug-31 05:52 244 0 gusting 3 12.8
2015-Aug-31 05:47 210 0 gusting 3 12.2
2015-Aug-31 05:42 210 0 gusting 3 12.2
2015-Aug-31 05:37 315 12.2
2015-Aug-31 05:32 315 12.2
2015-Aug-31 05:27 315 11.7
2015-Aug-31 05:22 315 11.7
2015-Aug-31 05:17 315 11.7
2015-Aug-31 05:12 315 11.1
2015-Aug-31 05:07 315 10.6
2015-Aug-31 05:02 315 10.6
2015-Aug-31 04:57 315 10.0
2015-Aug-31 04:52 315 10.0
2015-Aug-31 04:47 315 10.0
2015-Aug-31 04:42 315 9.4
2015-Aug-31 04:37 315 9.4
2015-Aug-31 04:32 315 9.4
2015-Aug-31 04:27 315 9.4
2015-Aug-31 04:22 315 9.4
2015-Aug-31 04:17 315 8.9
2015-Aug-31 04:12 315 8.9
2015-Aug-31 04:07 315 8.9
2015-Aug-31 04:02 315 8.9
2015-Aug-31 03:57 315 8.3
2015-Aug-31 03:52 315 8.3
2015-Aug-31 03:47 315 8.3
2015-Aug-31 03:42 315 8.3
2015-Aug-31 03:37 315 8.3
2015-Aug-31 03:32 315 7.8
2015-Aug-31 03:27 315 7.8
2015-Aug-31 03:22 315 7.8
2015-Aug-31 03:17 315 7.8
2015-Aug-31 03:12 315 7.2
2015-Aug-31 03:07 315 7.2
2015-Aug-31 03:02 315 7.2
2015-Aug-31 02:57 315 6.7
2015-Aug-31 02:52 315 6.7
2015-Aug-31 02:47 315 6.7
2015-Aug-31 02:42 315 6.7
2015-Aug-31 02:37 315 6.1
2015-Aug-31 02:32 315 6.1
2015-Aug-31 02:27 315 6.1
2015-Aug-31 02:22 315 5.6
2015-Aug-31 02:17 315 5.6
2015-Aug-31 02:12 315 5.6
2015-Aug-31 02:07 315 5.6
2015-Aug-31 02:02 315 5.6
2015-Aug-31 01:57 315 5.6
2015-Aug-31 01:52 315 5.6
2015-Aug-31 01:47 315 5.6
2015-Aug-31 01:42 315 5.6
2015-Aug-31 01:37 315 5.6
2015-Aug-31 01:32 315 5.6
2015-Aug-31 01:27 315 5.6
2015-Aug-31 01:22 315 5.6
2015-Aug-31 01:17 315 5.6
2015-Aug-31 01:12 315 5.6
2015-Aug-31 01:07 315 5.6
2015-Aug-31 01:02 315 0 gusting 1 5.6
2015-Aug-31 00:57 315 0 gusting 1 5.6
2015-Aug-31 00:52 315 0 gusting 0 5.6
2015-Aug-31 00:47 315 5.6
2015-Aug-31 00:42 315 6.1
2015-Aug-31 00:37 315 6.1
2015-Aug-31 00:32 315 6.1
2015-Aug-31 00:27 315 6.1
2015-Aug-31 00:22 315 6.1
2015-Aug-31 00:17 315 6.1
2015-Aug-31 00:12 315 6.1
2015-Aug-31 00:07 315 6.1
2015-Aug-31 00:02 315 6.1
2015-Aug-30 23:57 315 6.1
2015-Aug-30 23:52 315 6.1
2015-Aug-30 23:47 315 6.1
2015-Aug-30 23:42 315 0 gusting 1 6.1
2015-Aug-30 23:37 315 0 gusting 1 6.1
2015-Aug-30 23:32 315 6.1
2015-Aug-30 23:27 315 6.1
2015-Aug-30 23:22 315 6.1
2015-Aug-30 23:17 315 6.7
2015-Aug-30 23:12 315 6.7
2015-Aug-30 23:07 315 6.7
2015-Aug-30 23:02 315 6.7
2015-Aug-30 22:57 315 6.7
2015-Aug-30 22:52 315 6.7
2015-Aug-30 22:47 315 6.7
2015-Aug-30 22:42 315 6.7
2015-Aug-30 22:37 315 0 gusting 2 6.7
2015-Aug-30 22:32 315 0 gusting 1 6.7
2015-Aug-30 22:27 315 0 gusting 1 6.7
2015-Aug-30 22:22 315 6.7
2015-Aug-30 22:17 315 6.7
2015-Aug-30 22:12 315 6.7
2015-Aug-30 22:07 315 6.7
2015-Aug-30 22:02 315 6.7
2015-Aug-30 21:57 315 7.2
2015-Aug-30 21:52 315 7.2
2015-Aug-30 21:47 315 7.2
2015-Aug-30 21:42 315 7.2
2015-Aug-30 21:37 315 7.2
2015-Aug-30 21:32 315 7.2
2015-Aug-30 21:27 315 7.2
2015-Aug-30 21:22 315 7.2
2015-Aug-30 21:17 315 7.2
2015-Aug-30 21:12 315 7.2
2015-Aug-30 21:07 315 7.8
2015-Aug-30 21:02 315 0 gusting 1 7.8
2015-Aug-30 20:57 315 0 gusting 1 7.8
2015-Aug-30 20:52 315 7.8
2015-Aug-30 20:47 315 7.8
2015-Aug-30 20:42 315 7.8
2015-Aug-30 20:37 315 0 gusting 1 7.8
2015-Aug-30 20:32 315 0 7.8
2015-Aug-30 20:27 315 7.8
2015-Aug-30 20:22 315 8.3
2015-Aug-30 20:17 315 8.3
2015-Aug-30 20:12 315 8.3
2015-Aug-30 20:07 315 8.3
2015-Aug-30 20:02 315 8.3